Regional Weather Roundup
Issued by NWS

Home | Current Version | Previous Version | Graphics & Text | Print | Product List | Glossary On
Versions: 1 2 3 4 5 6 7 8 9 10 11 12 13 14 15 16 17 18 19 20 21 22 23 24 25 26 27 28 29 30 31 32 33 34 35 36 37 38 39 40 41 42 43 44 45 46 47 48 49 50
000
ASUS43 KMKX 230534
RWRWI

WISCONSIN REGIONAL WEATHER ROUNDUP
NATIONAL WEATHER SERVICE MILWAUKEE/SULLIVAN WI
100 AM CDT SAT MAY 23 2015

NOTE: "FAIR" INDICATES FEW OR NO CLOUDS BELOW 12,000 FEET WITH NO
SIGNIFICANT WEATHER AND/OR OBSTRUCTIONS TO VISIBILITY.

WIZ001-002-006>008-014>016-023>028-230700-
NORTHWEST WISCONSIN

CITY           SKY/WX    TMP DP  RH WIND       PRES   REMARKS
SUPERIOR ARPT  CLEAR     37  35  93 CALM      30.19F
ASHLAND        CLEAR     52  35  52 S7        30.18S
HAYWARD        CLEAR     47  38  71 CALM      30.21S
SIREN          CLEAR     47  41  77 CALM      30.20F
CUMBERLAND     CLEAR     48  41  76 CALM      30.22S
RICE LAKE      CLEAR     48  45  87 CALM      30.23S
CHETEK         CLEAR     46  43  89 CALM      30.22S
LADYSMITH      CLEAR     45  41  85 CALM      30.24S
EAU CLAIRE     PTCLDY    47  40  76 CALM      30.21S
MENOMONIE      PTCLDY    52  42  68 CALM      30.22S
NEW RICHMOND   PTCLDY    54  40  58 S3        30.22S
OSCEOLA        PTCLDY    48  42  79 CALM      30.23S
$$

WIZ003>005-009-010-017-018-230700-
NORTH CENTRAL WISCONSIN

CITY           SKY/WX    TMP DP  RH WIND       PRES   REMARKS
MANITOWISH WTR CLEAR     42  35  77 CALM      30.22S
ARBOR VITAE    CLEAR     43  35  72 CALM      30.23S
WOODRUFF       CLEAR     43  35  72 CALM      30.23S
RHINELANDER    CLEAR     39  33  79 MISG      30.24S
EAGLE RIVER    CLEAR     40  30  69 CALM      30.23S
LAND O LAKES   CLEAR     35  31  85 CALM      30.23S
PHILLIPS       CLEAR     43  39  83 CALM      30.22S
TOMAHAWK       CLEAR     39  34  84 CALM      30.25R
MEDFORD        CLEAR     45  38  76 CALM      30.24S
MERRILL        CLEAR     40  38  91 NE6       30.25S
$$

WIZ029-030-035-036-043>047-230700-
CENTRAL WISCONSIN

CITY           SKY/WX    TMP DP  RH WIND       PRES   REMARKS
WAUSAU         CLEAR     50  41  71 E5        30.22S
MOSINEE        PTCLDY    45  39  81 CALM      30.25S
MARSHFIELD     PTCLDY    52  40  63 CALM      30.24S
STEVENS POINT  PTCLDY    44  37  77 CALM      30.25S
WAUPACA        PTCLDY    51  35  54 SE3       30.26S
WAUTOMA        MOCLDY    51  39  63 CALM      30.26S
WISC RAPIDS    PTCLDY    47  37  68 SE5       30.25S
CAMP DOUGLAS   MOCLDY    46  46 100 N1        30.22S
$$

WIZ011>013-019>022-031-037>040-048>050-230700-
NORTHEAST WISCONSIN

CITY           SKY/WX    TMP DP  RH WIND       PRES   REMARKS
ANTIGO         CLEAR     45  36  70 CALM      30.25S
SHAWANO        CLEAR     49  37  63 CALM      30.26S
OCONTO         CLEAR     39  34  81 CALM      30.26S
STURGEON BAY   CLEAR     46  25  42 S8        30.30R
GREEN BAY      CLEAR     50  29  44 S5        30.26S
MANITOWOC      PTCLDY    49  25  39 SW7       30.27F
APPLETON       PTCLDY    50  30  46 S7        30.26S
CLINTONVILLE   PTCLDY    50  32  50 CALM      30.25S
OSHKOSH        MOCLDY    46  29  51 S7        30.26S
$$

WIZ032>034-041-042-053>061-230700-
SOUTHWEST WISCONSIN

CITY           SKY/WX    TMP DP  RH WIND       PRES   REMARKS
LA CROSSE      MOCLDY    55  44  66 SE3       30.22S
SPARTA         MOCLDY    45  41  86 CALM      30.24S
VIROQUA        MOCLDY    57  38  49 E7        30.23S
BOSCOBEL       CLOUDY    52  44  74 CALM      30.23S
PRAIRIE DU CHI CLOUDY    55  45  69 CALM      30.22S
PLATTEVILLE    MOCLDY    61  39  44 SE7       30.24S
$$

WIZ056-057-062-063-064-067-068-230700-
SOUTH CENTRAL WISCONSIN

CITY           SKY/WX    TMP DP  RH WIND       PRES   REMARKS
REEDSBURG      CLOUDY    52  44  74 CALM      30.24S
BARABOO/DELLS  CLOUDY    54  38  55 S6        30.25R
LONE ROCK      CLOUDY    52  46  80 E5        30.24R
MINERAL POINT  MOCLDY    57  37  47 SE8       30.25R
MADISON        CLOUDY    56  34  43 S9        30.27S
MIDDLETON      CLOUDY    58  28  32 S7        30.27S
WATERTOWN      CLOUDY    49  28  44 CALM      30.28R
MONROE         CLOUDY    54  37  54 SE7       30.26F
JANESVILLE     CLOUDY    52  32  46 SE5       30.28S
$$

WIZ051-052-058>065-066-070>072-230700-
SOUTHEAST WISCONSIN

CITY           SKY/WX    TMP DP  RH WIND       PRES   REMARKS
MILWAUKEE      MOCLDY    48  28  46 S6        30.29S
WAUKESHA       CLOUDY    46  27  46 S3        30.30S
MILWAUKEE/TIMM MOCLDY    46  27  46 CALM      30.29S
RACINE         CLOUDY    48  31  51 S6        30.30F
BURLINGTON     CLOUDY    45  32  59 CALM      30.29S
KENOSHA        CLOUDY    48  32  53 S5        30.29S
FOND DU LAC    MOCLDY    48  26  42 S7        30.27S
SHEBOYGAN      PTCLDY    43  28  55 SW3       30.27F
WEST BEND      MOCLDY    45  28  53 CALM      30.28S
JUNEAU         MOCLDY    48  30  49 S5        30.29R
$$

LSZ147-162-230700-
LAKE SUPERIOR

STATION/POSITION TIME  TEMP    WIND        PRES    WAVE
                       AIR SEA DIR/SP/G            HT/PER
                 (UTC) (F)     (DEG/KT/KT) (MB)    (FT/S)
W MID LAKE BUOY  0450   38 36  350/  4/  4   N/A     0
DEVILS ISLAND    0500   42     230/  8/  8   N/A
PORT WING        0400   41     190/  4/  5   N/A
SAXON HARBOR     0440   54     200/  5/  7   N/A
$$

LMZ867-665-643>646-230700-
LAKE MICHIGAN

STATION/POSITION TIME  TEMP    WIND        PRES    WAVE
                       AIR SEA DIR/SP/G            HT/PER
                 (UTC) (F)     (DEG/KT/KT) (MB)    (FT/S)
CHAMBERS ISLAND  0400   41     130/  2/  3   N/A
N MID LAKE BUOY  0450   40 36  220/  6/  6   N/A     0
NORTHPORT PIER   0400   46     190/  2/  5   N/A
SISTER BAY       0402   43        CALM       N/A
KEWAUNEE LAKESHO 0500   47     180/  5/  7   N/A
SHEBOYGAN LAKESH 0500   49     220/  9/ 10   N/A
PORT WASHINGTON  0400   49     260/  4/  5   N/A
ATWATER BUOY     0500   50 45  200/  6/  8   N/A
MILWAUKEE LAKESH 0500   52     210/  6/  8   N/A
S MID LAKE BUOY  0450   43 38  160/  8/  8   N/A     0
KENOSHA   LAKESH 0500   50     190/  5/  8   N/A
$$

TC  - TEMPERATURE IN CELSIUS
VSB - VISIBILITY IN STATUTE MILES
WCI - WIND CHILL INDEX
HX  - HEAT INDEX



USA.gov is the U.S. government's official web portal to all federal, state and local government web resources and services.